Overview Statistics Trail Chart Weather Telemetry Raw packets
 

This is the latest recevied weather packets stored in our database for station/object 4S6DRJ-13. If no packets are shown the sender has not sent any weather packets the latest 10 day(s).

<< 330 331 332 333 334 335 336 >>
Time Temp. Humidity Pressure Rain* Wind** Luminosity Snow
1787975043 29.44° C 79% 1011 hPa 0 mm 1.79 m/s, 2° 385 W/m² -
1787974982 29.44° C 80% 1011 hPa 0 mm 1.34 m/s, 105° 706 W/m² -
1787974921 29.44° C 80% 1011 hPa 0 mm 0.89 m/s, 311° 249 W/m² -
1787974860 29.44° C 80% 1010.9 hPa 0 mm 0.89 m/s, 281° 234 W/m² -
1787974799 29.44° C 80% 1011.2 hPa 0 mm 0.89 m/s, 206° 338 W/m² -
1787974738 29.44° C 79% 1011.2 hPa 0 mm 1.34 m/s, 211° 304 W/m² -
1787974677 29.44° C 79% 1010.9 hPa 0 mm 2.24 m/s, 288° 262 W/m² -
1787974616 29.44° C 79% 1011.1 hPa 0 mm 1.34 m/s, 314° 361 W/m² -
1787974555 29.44° C 79% 1011.2 hPa 0 mm 1.34 m/s, 273° 265 W/m² -
1787974495 29.44° C 79% 1011.2 hPa 0 mm 1.79 m/s, 220° 201 W/m² -
1787974433 29.44° C 78% 1011 hPa 0 mm 1.79 m/s, 253° 596 W/m² -
1787974372 29.44° C 78% 1011.3 hPa 0 mm 1.34 m/s, 300° 255 W/m² -
1787974311 29.44° C 78% 1011 hPa 0 mm 2.68 m/s, 87° 235 W/m² -
1787974250 29.44° C 78% 1011.2 hPa 0 mm 2.68 m/s, 275° 654 W/m² -
1787974189 29.44° C 79% 1011.1 hPa 0 mm 0.45 m/s, 236° 739 W/m² -
1787974128 29.44° C 79% 1011.2 hPa 0 mm 0.89 m/s, 209° 713 W/m² -
1787974067 29.44° C 79% 1010.9 hPa 0 mm 1.34 m/s, 173° 693 W/m² -
1787974006 29.44° C 79% 1011 hPa 0 mm 1.79 m/s, 201° 673 W/m² -
1787973945 29.44° C 79% 1011.2 hPa 0 mm 1.34 m/s, 233° 248 W/m² -
1787973884 29.44° C 79% 1011.2 hPa 0 mm 1.79 m/s, 216° 259 W/m² -
1787973823 29.44° C 80% 1010.8 hPa 0 mm 2.24 m/s, 333° 285 W/m² -
1787973762 29.44° C 80% 1011 hPa 0 mm 1.79 m/s, 218° 706 W/m² -
1787973701 29.44° C 81% 1011 hPa 0 mm 0 m/s 681 W/m² -
1787973640 28.89° C 81% 1010.9 hPa 0 mm 1.34 m/s, 195° 569 W/m² -
1787973579 28.89° C 80% 1010.8 hPa 0 mm 0.45 m/s, 196° 224 W/m² -

* Rain latest hour (hover to see other rain measurements)
** Current wind speed in m/s (hover to see current wind gust speed)